DECAYED

STARLINK-1355, 45563 (Decayed)

Orbit data source: Space-Track

STARLINK-1355, 45563 was a payload satellite owned by SpaceX/Seattle (US) in LEO that was launched on Wed, 22 Apr 2020 UTC via an FALCON 9 launch vehicle from the Air Force Eastern Test Range (AFETR). Payload-class satellites include a variety of spacecraft equipped with specific instruments for various scientific and technological missions. These include communications satellites like Starlink; space stations such as the ISS; scientific satellites like the Hubble; Earth observation satellites from companies like Planet Labs, Umbra, and HawkEye 360; GPS; miniature CubeSats for education and research; and military/defense satellites.

Not visible in the next 10 days
Identifier
45563, 2020-025AJ
Orbit
Decayed
Country
Flag of USUS
Related business
Manufacturer
SpaceX/Seattle
Mission
Decayed Commercial Communications
Bus & Motor
STARLINK, Unknown motor
Mass
260 kg wet, ~248 kg dry
Launch date (UTC)
2020-04-22 (6 years ago)
Launch vehicle
FALCON 9
Launch site
Air Force Eastern Test Range (AFETR)
Object type
Payload
Rocket body
Debris
Shape & HBR
Box + 1 Pan, 10.1 m
Radar Cross Section
13.562 m², Large (>1 m²)

Expand to show TLE details & history
Last TLE update: 1 month ago

TLE from 1 month ago
0 STARLINK-1355
1 45563U 20025AJ  25268.67889990  .09751197  12452-4  52640-3 0  9998
2 45563  53.0184 344.3307 0002592 302.3387  57.7409 16.42385544302216
Epoch: 2025-09-25T16:17Z
TLE epoch observation values (Epoch: 2025-09-25T16:17:36.951Z)
Latitude
-0.00001°
Longitude
95.19015°
Altitude
159.487 km
Speed
7.812 km/s
True Right ascension
22h 57m 19s
True Declination
0° 00' 00"
Sunlit
Object was in full shadow at epoch
Visualization orbit readout
Latitude
Unknown
Longitude
Unknown
Altitude
Unknown
Speed
Unknown
Apparent Right ascension
Unknown
Apparent Declination
Unknown
Sunlit
N/A
Visualization observer readout
Local Sidereal Time
00:11:19
Azimuth
Unknown
Elevation
Unknown
Doppler factor
Unknown
Orbital elements
Apogee altitude
161.451 km
Perigee altitude
158.062 km
Semi-major axis
6,537.894 km
Eccentricity
0.00026
Inclination
53.0184°
RAAN
344.3307°
Arg. of periapsis
302.3387°
True anomaly
57.76602°
Mean anomaly
57.7409°
Eccentric anomaly
57.75346°
Mean motion
4.10569 °/min
Orbital period
87.68 mins
BSTAR
0.0005264
Loading maneuver chart data...
Computing Atmospheric mass density...

Documentation

Showing up to 5 results
|